Home   Weather   Schwäbisch Gmünd   Past weeks

Flag for Germany Past Weather in Schwäbisch Gmünd, Baden-Württemberg, Germany — Yesterday and Last 2 Weeks

Now
25 °F

Light fog.


Feels Like: 25 °F
Forecast: 20 / 35 °F
Wind: No wind

Location: Stuttgart-Echterdingen

Current Time: Dec 6, 2016 at 2:02:45 am

Latest Report: Dec 6, 2016 at 1:20 am


Visibility: 5 mi

Pressure: 30.36 "Hg

Humidity: 93%

Dew Point: 23 °F

Location of Schwäbisch GmündLocation

Past Weather in Schwäbisch Gmünd — Graph

°F

Schwäbisch Gmünd Temperature Yesterday

Maximum temperature yesterday: 41 °F (at 3:20 pm)
Minimum temperature yesterday: 23 °F (at 3:50 am)
Average temperature yesterday: 30 °F

High & Low Weather Summary for the Past Weeks

 TemperatureHumidityPressure
High54 °F (Nov 21, 11:20 pm)100% (Nov 23, 12:20 am)30.51 "Hg (Nov 23, 12:20 am)
Low19 °F (Nov 30, 5:20 am)31% (Dec 1, 1:50 pm)29.59 "Hg (Nov 21, 12:20 pm)
Average38 °F84%30.14 "Hg
* Reported Nov 21 12:20 am — Dec 6 12:50 am, Schwäbisch Gmünd, Weather by CustomWeather, © 2016

Note: Actual official high and low records may vary slightly from our data, if they occured in-between our weather recording intervals... More about our weather records

Advertising

Schwäbisch Gmünd Weather History for the Previous 24 Hours

Scroll right to see more
 ConditionsComfort  
Time TempWeatherWind HumidityBarometerVisibility
12:50 am
Tue, Dec 6
25 °FLight fog.1 mph93%30.36 "Hg6 mi
12:20 am25 °FLight fog.1 mph100%30.36 "Hg6 mi
11:50 pm
Mon, Dec 5
25 °FLight fog.2 mph100%30.36 "Hg6 mi
11:20 pm27 °FLight fog.2 mph93%30.36 "Hg6 mi
10:50 pm27 °FPassing clouds.1 mph100%30.36 "HgN/A
10:20 pm27 °FPassing clouds.1 mph100%30.33 "HgN/A
9:50 pm28 °FClear.No wind93%30.33 "Hg10 mi
9:20 pm28 °FClear.2 mph93%30.33 "Hg10 mi
8:50 pm28 °FClear.1 mph100%30.33 "Hg10 mi
8:20 pm28 °FClear.2 mph93%30.33 "Hg10 mi
7:50 pm28 °FClear.No wind93%30.33 "Hg10 mi
7:20 pm30 °FClear.2 mph86%30.33 "Hg10 mi
6:50 pm30 °FClear.1 mph93%30.33 "Hg10 mi
6:20 pm32 °FClear.1 mph87%30.33 "Hg10 mi
5:50 pm32 °FClear.2 mph87%30.33 "Hg10 mi
5:20 pm34 °FClear.No wind81%30.30 "Hg10 mi
4:50 pm36 °FClear.1 mph81%30.30 "Hg10 mi
4:20 pm37 °FSunny.No wind75%30.30 "Hg10 mi
3:50 pm39 °FSunny.No wind70%30.30 "Hg10 mi
3:20 pm41 °FSunny.2 mph66%30.30 "Hg10 mi
2:50 pm39 °FSunny.2 mph70%30.30 "Hg10 mi
2:20 pm39 °FPassing clouds.3 mph70%30.30 "HgN/A
1:50 pm39 °FPassing clouds.5 mph70%30.30 "HgN/A
1:20 pm39 °FPassing clouds.3 mph70%30.30 "HgN/A
12:50 pm39 °FPassing clouds.5 mph70%30.30 "HgN/A
12:20 pm37 °FPassing clouds.5 mph75%30.30 "HgN/A
11:50 am36 °FPassing clouds.3 mph81%30.30 "HgN/A
11:20 am34 °FSunny.3 mph81%30.30 "Hg10 mi
10:50 am32 °FSunny.3 mph87%30.30 "Hg10 mi
10:20 am30 °FClear.3 mph86%30.30 "Hg6 mi
9:50 am28 °FClear.1 mph93%30.30 "Hg6 mi
9:20 am27 °FClear.1 mph100%30.30 "Hg6 mi
8:50 am25 °FClear.1 mph100%30.30 "Hg6 mi
8:20 am23 °FFog.1 mph93%30.30 "Hg6 mi
7:50 am23 °FLight fog.1 mph93%30.30 "Hg5 mi
7:20 am23 °FLight fog.1 mph100%30.30 "Hg6 mi
6:50 am23 °FLight fog.1 mph93%30.30 "Hg6 mi
6:20 am23 °FLight fog.1 mph93%30.30 "Hg6 mi
5:50 am23 °FLight fog.1 mph100%30.30 "Hg6 mi
5:20 am23 °FLight fog.2 mph93%30.27 "Hg6 mi
4:50 am23 °FClear.1 mph93%30.30 "Hg6 mi
4:20 am23 °FPassing clouds.No wind100%30.30 "HgN/A
3:50 am23 °FPassing clouds.No wind100%30.30 "HgN/A
3:20 am25 °FPassing clouds.No wind93%30.30 "HgN/A
2:50 am25 °FPassing clouds.1 mph93%30.30 "HgN/A
2:20 am27 °FPassing clouds.2 mph93%30.30 "HgN/A
Weather by CustomWeather, © 2016

See weather overviewHow to use our weather pages